Starlink 4510

operational
NORAD ID: 53405 Int'l Des: 2022-097 Owner: SPXS Country: US Constellation: starlink
LEOCIRCULAR

About Starlink 4510

Description loading...

Live Position

Loading 3D Globe...

Upcoming Passes

Altitude History

Altitude vs Time

uPlot chart will show altitude changes over time

Two-Line Element Set

1 53405U 22097T 25301.44568516 .00000913 00000-0 75430-4 0 9993
2 53405 53.2188 357.7854 0001526 97.6585 262.4580 15.08835043178559
Epoch: Oct 28, 2025 • Age: 25 hours

Current Status

Altitude 548.3 km
Velocity 7.59 km/s
Sub-Earth Point -26.60°S, 113.38°E
Launch Date Aug 10, 2022
Age 3.2 years
Type internet

Technical Details

Classification Payload
Mass 297.00 kg
Dry Mass 275.00 kg
Total Mass 297.00 kg
Length 0.20 m
Diameter 2.80 m
Span 9.00 m
Shape Box + pan
Manufacturer SPXS
Bus Type Starlink
Phase Status In Orbit
Owner/State SPXS/US

Large Constellations

Loading constellations...